{"data":{"norad_id":43831,"epoch":"2026-09-20T05:20:33.533376Z","epoch_age_seconds":42211,"freshness":"FRESH","line1":"1 43831U 18102A   26263.22261034  .00003541  00000+0  12872-3 0  9995","line2":"2 43831  97.2968 322.9723 0010267 148.4308 211.7551 15.28867146430191","mean_motion":15.28867146,"eccentricity":0.0010267,"inclination_deg":97.2968,"raan_deg":322.9723,"arg_perigee_deg":148.4308,"mean_anomaly_deg":211.7551,"bstar":0.00012872,"rev_number":43019,"period_min":94.187385984943,"perigee_km":472.15719667572,"apogee_km":486.2380475888,"semimajor_km":6857.3346221323,"source":"CELESTRAK","updated_at":"2026-09-20T09:00:33.974343Z"}}